Vorticity
nan nan nan nan nan nan nan nan nan nan nan nan nan nan nan nan nan nan nan nan nan nan nan nan nan nan nan nan nan nan nan nan nan nan nan nan nan nan nan nan nan nan nan
nan 9 8 9 9 9 9 9 9 9 7 5 6 9 9 10 9 11 10 11 10 8 9 9 9 9 10 10 9 9 10 10 9 9 9 9 9 10 9 9 11 11 nan
nan 9 9 9 9 9 8 7 8 9 10 9 8 6 10 11 10 12 11 7 8 9 9 10 10 12 12 10 10 9 9 9 8 10 10 9 10 9 10 10 9 12 nan
nan 9 9 9 9 9 9 8 7 8 9 9 10 10 12 12 10 8 8 8 7 8 9 9 13 13 14 13 11 10 8 8 10 9 9 9 9 10 11 11 11 10 nan
nan 8 9 9 9 8 9 9 10 10 8 9 11 13 10 7 7 9 9 8 10 10 10 14 11 6 11 13 9 7 7 9 8 9 9 10 8 10 10 11 9 9 nan
nan 8 8 9 9 10 10 7 7 10 12 12 11 11 9 3 4 9 13 12 10 13 15 13 8 9 5 4 7 10 11 11 11 10 8 8 7 10 10 8 10 10 nan
nan 9 9 10 9 8 9 10 9 8 9 9 11 8 6 4 5 7 13 20 13 11 12 11 12 8 8 7 8 12 17 17 14 7 9 7 9 9 9 10 11 10 nan
nan 9 10 9 9 9 9 8 8 8 9 10 11 10 6 3 5 7 17 20 13 9 9 13 13 9 5 9 13 13 13 11 10 9 10 8 8 9 12 12 13 14 nan
nan 9 9 9 9 9 8 9 10 10 9 9 9 11 7 4 4 9 18 16 10 8 12 13 10 7 5 11 13 10 11 10 7 8 8 14 15 13 11 12 12 13 nan
nan 9 11 10 9 9 8 9 11 11 10 11 10 6 10 7 1 7 15 14 9 10 15 11 -0 1 7 9 10 9 8 6 6 10 12 12 14 11 13 15 12 10 nan
nan 9 8 8 9 9 9 9 10 9 10 10 9 9 6 7 8 5 9 11 9 11 10 8 2 2 5 8 12 9 4 7 11 11 9 9 10 11 12 9 10 11 nan
nan 7 8 11 11 9 9 9 8 13 15 11 10 10 9 4 1 6 9 10 12 10 10 7 1 1 6 12 16 10 11 17 14 10 10 8 9 11 10 9 12 13 nan
nan 9 10 10 9 8 7 11 11 12 13 11 10 11 9 7 2 5 11 14 18 14 10 5 7 11 12 14 12 14 17 14 12 10 11 8 10 10 11 13 12 13 nan
nan 7 9 9 9 11 11 7 11 12 12 11 11 11 9 9 8 6 8 9 9 10 11 19 22 19 17 13 12 14 11 10 10 11 9 9 11 11 12 12 11 13 nan
nan 11 10 7 5 6 9 13 12 10 12 12 14 11 9 10 6 6 8 9 8 9 16 15 14 16 16 13 11 10 9 10 10 12 8 9 12 11 11 12 13 12 nan
nan 9 12 16 12 8 6 3 9 12 5 6 6 7 9 3 2 8 10 8 8 17 19 10 11 10 10 11 11 10 9 10 11 11 9 9 10 10 11 13 13 11 nan
nan 12 9 10 10 15 15 9 4 5 8 8 4 6 7 1 4 8 9 20 19 13 11 10 10 10 10 10 10 10 10 9 10 13 10 10 11 8 11 13 12 12 nan
nan 10 14 12 12 11 10 12 15 17 13 15 14 7 9 13 9 6 13 18 16 13 11 10 10 10 10 10 11 11 11 9 10 11 11 12 11 10 10 12 12 11 nan
nan 10 11 8 11 12 10 10 11 11 13 12 16 15 8 17 21 12 12 15 11 10 10 10 11 10 11 11 10 10 11 10 10 11 11 11 11 11 10 10 8 11 nan
nan 10 15 12 10 10 11 11 11 11 12 9 9 10 10 13 15 14 12 10 11 10 10 11 11 10 10 11 10 10 11 9 10 11 10 11 10 12 10 9 11 12 nan
nan 10 10 12 12 11 11 10 10 11 11 13 10 8 11 12 10 11 10 10 11 10 10 11 11 10 11 12 10 10 11 10 10 11 11 10 10 11 12 11 11 12 nan
nan 12 12 11 10 9 10 11 12 11 11 11 11 11 11 12 11 10 10 11 10 11 11 11 11 10 11 12 10 10 10 10 11 10 11 11 12 10 10 11 11 11 nan
nan 10 12 12 11 11 9 10 9 11 11 11 11 11 12 11 11 10 10 10 11 11 11 11 11 11 12 12 8 10 11 11 11 11 10 11 10 12 10 11 12 10 nan
nan 12 12 9 10 11 10 11 12 10 10 11 11 11 11 11 10 10 11 10 10 11 11 11 8 9 16 14 9 11 11 11 11 8 11 14 10 10 11 11 9 12 nan
nan 12 11 10 11 11 11 11 10 10 10 11 10 10 11 11 10 10 11 10 11 10 10 12 9 8 13 9 8 11 12 11 11 13 16 11 10 10 16 11 9 12 nan
nan nan nan nan nan nan nan nan nan nan nan nan nan nan nan nan nan nan nan nan nan nan nan nan nan nan nan nan nan nan nan nan nan nan nan nan nan nan nan nan nan nan nan
CAPE
361 181 105 21 12 3 0 0 0 0 0 0 0 0 0 0 8 4 6 0 19 15 16 22 16 16 10 26 14 12 12 11 19 3 1 0 0 0 0 0 6 5 6
68 23 13 8 4 0 0 0 0 0 0 5 0 0 0 0 0 0 3 3 8 12 22 22 22 14 22 23 19 21 16 3 6 6 3 1 3 0 2 4 2 8 14
13 13 8 3 2 2 3 8 2 0 0 0 0 0 1 2 6 10 0 0 0 0 14 21 19 20 21 25 19 2 1 4 5 10 3 0 1 0 0 1 5 10 15
8 7 6 7 8 10 12 14 14 16 12 7 7 3 3 0 0 0 0 0 0 0 0 15 27 22 13 4 1 1 3 4 1 2 1 0 1 0 0 2 2 11 4
12 10 10 8 9 7 5 4 6 8 9 11 10 0 0 0 0 0 0 0 0 0 0 17 30 21 0 0 0 0 2 0 0 1 2 4 6 5 9 10 9 6 2
0 0 0 0 0 2 7 13 6 0 0 0 0 0 0 0 0 0 0 0 0 0 13 25 8 14 0 0 0 0 0 0 0 0 6 10 7 7 10 7 5 5 5
0 0 0 0 0 2 0 0 0 0 5 12 5 0 0 0 0 0 0 0 0 14 0 0 0 1 0 0 0 0 0 0 0 0 0 3 5 5 6 1 2 3 2
0 0 0 0 0 0 2 5 12 19 15 4 0 0 0 0 0 0 0 0 6 3 1 0 2 0 0 0 0 0 2 0 0 0 0 0 4 0 0 0 2 1 9
0 0 0 0 0 0 4 8 10 9 11 8 0 1 0 0 0 0 0 0 0 0 0 0 0 0 0 0 0 0 0 0 0 0 0 0 0 0 0 4 8 13 7
0 0 0 0 0 4 10 11 11 10 5 3 1 12 0 0 0 0 0 0 0 0 0 1 0 0 0 0 0 0 0 0 0 0 0 0 0 0 0 3 4 7 7
0 0 0 0 0 5 12 15 11 0 0 0 0 2 0 0 0 0 0 0 0 0 0 0 0 0 0 0 0 0 0 0 0 0 0 0 0 0 3 3 7 9 11
0 0 0 1 0 5 13 9 1 0 38 31 39 18 6 0 0 0 0 0 0 0 0 0 0 0 0 0 0 0 0 0 0 0 0 0 0 0 3 5 6 5 7
0 0 1 2 3 1 0 0 0 0 0 0 0 0 0 0 0 0 0 0 0 0 0 0 0 0 0 0 0 0 0 0 0 0 0 0 0 4 6 4 2 2 2
0 0 7 0 0 0 0 0 0 0 0 0 0 0 0 0 0 0 0 0 0 0 0 0 0 0 0 0 0 0 0 0 0 0 0 0 0 3 4 2 3 3 5
5 7 6 3 0 0 0 0 0 0 0 0 0 0 0 0 0 0 0 0 0 0 0 0 0 0 0 0 0 0 0 0 0 0 0 0 0 1 1 2 3 3 6
1 0 1 1 4 0 0 0 0 0 0 0 0 0 0 0 0 0 0 0 0 0 0 0 0 0 0 0 0 0 0 0 0 0 0 0 1 2 3 2 1 4 6
2 0 0 0 0 0 0 0 0 0 0 0 0 0 0 0 0 0 0 0 0 0 0 0 0 0 0 0 0 0 0 0 0 0 0 0 0 0 2 2 4 4 4
0 0 0 0 0 0 0 0 0 0 0 0 0 0 0 0 0 0 0 0 0 0 0 0 0 0 0 0 0 0 0 0 0 0 1 4 1 1 1 2 3 5 4
0 0 0 0 0 0 0 0 0 0 0 0 0 0 0 0 0 0 0 0 0 0 0 0 0 0 0 0 0 0 0 0 0 0 4 6 1 1 0 2 3 0 0
0 0 0 0 0 0 0 0 0 0 0 0 0 0 0 0 0 0 0 0 0 0 0 0 0 0 0 0 0 0 0 0 0 1 4 3 2 2 1 1 1 2 4
0 0 0 0 0 0 0 0 0 0 0 0 0 0 0 0 0 0 0 0 0 0 0 0 0 0 0 1 0 0 0 0 0 2 4 1 2 1 8 3 1 2 3
0 0 0 0 0 0 0 0 0 0 0 0 0 0 0 0 0 0 0 0 0 0 0 0 0 0 0 1 0 0 0 0 0 3 3 0 1 0 3 3 1 2 3
0 0 0 0 0 0 0 0 0 0 0 0 0 0 0 0 0 0 0 0 0 0 0 0 0 0 0 0 0 0 0 0 1 2 2 1 0 2 0 0 3 4 4
0 0 0 0 0 0 0 0 0 0 0 0 0 0 0 0 0 0 0 0 0 0 0 0 0 0 0 0 0 0 0 0 1 1 1 0 0 4 0 0 3 1 4
0 0 0 0 0 0 0 0 0 0 0 0 0 0 0 0 0 0 0 0 0 0 0 0 0 0 0 0 0 0 0 0 0 0 0 0 5 1 0 0 1 1 3
0 0 0 0 0 0 0 0 0 0 0 0 0 0 0 0 0 0 0 0 0 0 0 0 0 0 0 0 0 0 0 0 0 0 0 1 2 0 0 0 0 1 3